When you browse on this site, cookies collect data to enhance your experience and personalize the content and advertising you see.
Visit our Privacy Policy to learn more. By continuing to use the site, you agree to this use of cookies and data.
  • In Portugal
  • List of Countries
  • For 7 days
  • Water Temperature
  • Satellite Maps
  • Weather Map
  • Weather Widgets
  • user-avatar
    Login

    Hourly Weather Luanda

    Today, 25 May, Saturday

    Time Temperature Precipitation Wind Pressure Humidity
    00:00 +26°C° 0 mm 4 mps 754 mmHg 92%
    01:00 +25°C° 0 mm 3 mps 754 mmHg 93%
    02:00 +25°C° 0 mm 3 mps 753 mmHg 94%
    03:00 +25°C° 0 mm 3 mps 753 mmHg 94%
    04:00 +25°C° 0 mm 2 mps 753 mmHg 95%
    05:00 +25°C° 0 mm 2 mps 753 mmHg 94%
    06:00 +25°C° 0 mm 2 mps 753 mmHg 94%
    07:00 +25°C° 0 mm 2 mps 754 mmHg 92%
    08:00 +27°C° 0 mm 2 mps 754 mmHg 83%
    09:00 +29°C° 0 mm 2 mps 754 mmHg 73%
    10:00 +30°C° 0 mm 1 mps 754 mmHg 63%
    11:00 +32°C° 0 mm 2 mps 753 mmHg 58%
    12:00 +35°C° 0 mm 3 mps 752 mmHg 52%
    13:00 +36°C° 0 mm 3 mps 752 mmHg 46%
    14:00 +36°C° 0 mm 4 mps 751 mmHg 50%
    15:00 +35°C° 0 mm 5 mps 751 mmHg 53%
    16:00 +34°C° 0 mm 6 mps 750 mmHg 56%
    17:00 +33°C° 0 mm 5 mps 750 mmHg 64%
    18:00 +30°C° 0 mm 5 mps 751 mmHg 72%
    19:00 +28°C° 0 mm 5 mps 751 mmHg 80%
    20:00 +27°C° 0 mm 5 mps 751 mmHg 82%
    21:00 +27°C° 0 mm 4 mps 752 mmHg 85%
    22:00 +26°C° 0 mm 3 mps 752 mmHg 87%
    23:00 +26°C° 0 mm 3 mps 752 mmHg 89%

    Tomorrow, 26 May, Sunday

    Time Temperature Precipitation Wind Pressure Humidity
    00:00 +26°C° 0 mm 2 mps 753 mmHg 90%
    01:00 +25°C° 0 mm 2 mps 753 mmHg 92%
    02:00 +25°C° 0 mm 2 mps 753 mmHg 93%
    03:00 +25°C° 0 mm 1 mps 753 mmHg 94%
    04:00 +24°C° 0 mm 1 mps 753 mmHg 95%
    05:00 +25°C° 0 mm 1 mps 753 mmHg 94%
    06:00 +25°C° 0 mm 2 mps 753 mmHg 92%
    07:00 +25°C° 0 mm 2 mps 753 mmHg 91%
    08:00 +27°C° 0 mm 2 mps 754 mmHg 82%
    09:00 +29°C° 0 mm 1 mps 754 mmHg 73%
    10:00 +31°C° 0 mm 1 mps 754 mmHg 64%
    11:00 +32°C° 0 mm 1 mps 753 mmHg 58%
    12:00 +33°C° 0 mm 1 mps 753 mmHg 52%
    13:00 +36°C° 0 mm 2 mps 752 mmHg 46%
    14:00 +35°C° 0 mm 3 mps 752 mmHg 51%
    15:00 +34°C° 0 mm 4 mps 751 mmHg 55%
    16:00 +33°C° 0 mm 5 mps 751 mmHg 60%
    17:00 +32°C° 0 mm 4 mps 751 mmHg 68%
    18:00 +29°C° 0 mm 4 mps 751 mmHg 77%
    19:00 +27°C° 0 mm 4 mps 751 mmHg 85%
    20:00 +27°C° 0 mm 4 mps 752 mmHg 86%
    21:00 +27°C° 0 mm 3 mps 752 mmHg 88%
    22:00 +27°C° 0 mm 3 mps 753 mmHg 90%
    23:00 +26°C° 0 mm 2 mps 753 mmHg 91%

    Day after tomorrow, 27 May, Monday

    Time Temperature Precipitation Wind Pressure Humidity
    00:00 +26°C° 0 mm 2 mps 752 mmHg 93%
    01:00 +25°C° 0 mm 2 mps 752 mmHg 95%
    02:00 +25°C° 0 mm 2 mps 752 mmHg 95%
    03:00 +25°C° 0 mm 2 mps 752 mmHg 96%
    04:00 +25°C° 0 mm 3 mps 752 mmHg 97%
    05:00 +25°C° 0 mm 2 mps 752 mmHg 96%
    06:00 +25°C° 0 mm 2 mps 753 mmHg 95%
    07:00 +25°C° 0 mm 2 mps 753 mmHg 94%
    08:00 +27°C° 0 mm 1 mps 753 mmHg 83%
    09:00 +29°C° 0 mm 1 mps 753 mmHg 73%
    10:00 +29°C° 0 mm 0 mps 753 mmHg 62%
    11:00 +32°C° 0 mm 1 mps 753 mmHg 58%
    12:00 +34°C° 0 mm 2 mps 752 mmHg 53%
    13:00 +36°C° 0 mm 3 mps 751 mmHg 49%
    14:00 +35°C° 0 mm 4 mps 751 mmHg 55%
    15:00 +33°C° 0 mm 5 mps 750 mmHg 60%
    16:00 +32°C° 0 mm 5 mps 750 mmHg 66%
    17:00 +30°C° 0 mm 5 mps 750 mmHg 72%
    18:00 +28°C° 0 mm 4 mps 751 mmHg 79%
    19:00 +27°C° 0 mm 4 mps 751 mmHg 85%
    20:00 +27°C° 0 mm 4 mps 752 mmHg 86%
    21:00 +27°C° 0 mm 4 mps 752 mmHg 88%
    22:00 +26°C° 0 mm 4 mps 753 mmHg 89%
    23:00 +26°C° 0 mm 3 mps 753 mmHg 90%

    28 May, Tuesday

    Time Temperature Precipitation Wind Pressure Humidity
    00:00 +26°C° 0 mm 2 mps 753 mmHg 91%
    01:00 +24°C° 0 mm 0 mps 753 mmHg 92%
    02:00 +24°C° 0 mm 0 mps 753 mmHg 91%
    03:00 +24°C° 0 mm 0 mps 752 mmHg 91%
    04:00 +24°C° 0 mm 0 mps 752 mmHg 90%
    05:00 +24°C° 0.1 mm 0 mps 753 mmHg 88%
    06:00 +27°C° 0.1 mm 1 mps 753 mmHg 86%
    07:00 +27°C° 0.1 mm 1 mps 753 mmHg 84%
    08:00 +28°C° 0 mm 1 mps 754 mmHg 77%
    09:00 +29°C° 0 mm 1 mps 754 mmHg 69%
    10:00 +31°C° 0 mm 1 mps 754 mmHg 62%
    11:00 +31°C° 0 mm 2 mps 754 mmHg 59%
    12:00 +33°C° 0 mm 3 mps 753 mmHg 56%
    13:00 +34°C° 0 mm 4 mps 752 mmHg 53%
    14:00 +33°C° 0 mm 4 mps 752 mmHg 56%
    15:00 +32°C° 0 mm 4 mps 751 mmHg 60%
    16:00 +32°C° 0 mm 5 mps 751 mmHg 64%
    17:00 +29°C° 0 mm 4 mps 752 mmHg 69%
    18:00 +28°C° 0 mm 4 mps 752 mmHg 75%
    19:00 +27°C° 0 mm 4 mps 753 mmHg 80%
    20:00 +27°C° 0 mm 4 mps 753 mmHg 82%
    21:00 +26°C° 0 mm 4 mps 754 mmHg 84%
    22:00 +26°C° 0 mm 4 mps 754 mmHg 85%
    23:00 +26°C° 0 mm 3 mps 754 mmHg 87%

    29 May, Wednesday

    Time Temperature Precipitation Wind Pressure Humidity
    00:00 +25°C° 0 mm 2 mps 754 mmHg 90%
    01:00 +25°C° 0 mm 2 mps 754 mmHg 92%
    02:00 +25°C° 0 mm 1 mps 753 mmHg 92%
    03:00 +25°C° 0 mm 1 mps 753 mmHg 92%
    04:00 +25°C° 0 mm 1 mps 753 mmHg 92%
    05:00 +25°C° 0.1 mm 1 mps 753 mmHg 90%
    06:00 +26°C° 0.1 mm 2 mps 754 mmHg 88%
    07:00 +26°C° 0.1 mm 2 mps 754 mmHg 85%
    08:00 +28°C° 0 mm 2 mps 755 mmHg 76%
    09:00 +29°C° 0 mm 1 mps 755 mmHg 67%
    10:00 +31°C° 0 mm 1 mps 755 mmHg 58%
    11:00 +32°C° 0 mm 1 mps 754 mmHg 54%
    12:00 +34°C° 0 mm 2 mps 753 mmHg 50%
    13:00 +35°C° 0 mm 3 mps 752 mmHg 46%
    14:00 +34°C° 0 mm 4 mps 752 mmHg 50%
    15:00 +33°C° 0 mm 5 mps 751 mmHg 55%
    16:00 +32°C° 0 mm 5 mps 751 mmHg 59%
    17:00 +29°C° 0 mm 5 mps 752 mmHg 66%
    18:00 +28°C° 0 mm 5 mps 752 mmHg 73%
    19:00 +26°C° 0 mm 4 mps 753 mmHg 79%
    20:00 +26°C° 0 mm 4 mps 753 mmHg 82%
    21:00 +25°C° 0 mm 3 mps 754 mmHg 84%
    22:00 +25°C° 0 mm 3 mps 754 mmHg 86%
    23:00 +25°C° 0 mm 3 mps 754 mmHg 88%

    30 May, Thursday

    Time Temperature Precipitation Wind Pressure Humidity
    00:00 +24°C° 0 mm 2 mps 754 mmHg 90%
    01:00 +24°C° 0 mm 2 mps 754 mmHg 92%
    02:00 +24°C° 0 mm 2 mps 754 mmHg 93%
    03:00 +23°C° 0 mm 2 mps 753 mmHg 93%
    04:00 +23°C° 0 mm 2 mps 753 mmHg 94%
    05:00 +23°C° 0 mm 2 mps 754 mmHg 94%
    06:00 +22°C° 0 mm 3 mps 754 mmHg 94%
    07:00 +22°C° 0 mm 3 mps 755 mmHg 93%
    08:00 +25°C° 0 mm 3 mps 755 mmHg 87%
    09:00 +26°C° 0 mm 3 mps 755 mmHg 80%
    10:00 +27°C° 0 mm 3 mps 755 mmHg 73%
    11:00 +29°C° 0 mm 2 mps 754 mmHg 63%
    12:00 +31°C° 0 mm 2 mps 754 mmHg 54%
    13:00 +32°C° 0 mm 1 mps 753 mmHg 45%
    14:00 +33°C° 0 mm 3 mps 752 mmHg 49%
    15:00 +32°C° 0 mm 4 mps 752 mmHg 53%
    16:00 +32°C° 0 mm 5 mps 751 mmHg 57%
    17:00 +29°C° 0 mm 5 mps 752 mmHg 64%
    18:00 +27°C° 0 mm 4 mps 753 mmHg 71%
    19:00 +26°C° 0 mm 4 mps 753 mmHg 79%
    20:00 +25°C° 0 mm 4 mps 754 mmHg 80%
    21:00 +25°C° 0 mm 4 mps 754 mmHg 81%
    22:00 +25°C° 0 mm 4 mps 754 mmHg 82%
    23:00 +24°C° 0 mm 3 mps 754 mmHg 85%
    Show more